Cloud_Cover
100 100 100 94 24 55 74 100 4 4 16 66 26 13 53 89 100 100 100 100 35 19 5 6 100 78 96 52 4 0 2 0 0
100 100 99 100 100 76 5 98 9 100 80 5 23 9 25 48 100 100 100 100 100 100 80 5 6 25 98 41 5 8 55 3 0
100 100 100 100 100 72 58 94 100 100 100 62 34 5 89 20 70 98 100 100 100 43 100 22 5 5 14 57 35 5 61 100 16
48 100 100 100 100 100 100 97 97 100 85 95 20 69 75 5 5 99 100 100 100 100 98 100 7 58 13 7 8 5 14 90 100
73 100 100 100 100 100 100 100 100 100 100 91 96 100 97 5 5 8 100 100 100 100 100 100 100 46 28 9 5 5 5 14 87
100 96 100 100 99 100 100 100 100 100 100 100 92 59 100 51 41 86 79 87 100 100 100 98 100 100 30 62 39 5 5 91 98
100 100 100 100 100 100 100 100 100 100 100 100 96 95 100 100 100 100 99 44 63 100 100 100 100 100 100 34 8 33 52 18 62
100 100 100 100 100 100 100 100 100 100 100 100 100 100 98 100 100 100 100 96 89 98 100 100 100 100 100 100 100 66 100 96 35
100 100 100 100 100 100 100 100 100 100 100 100 100 100 100 100 100 100 100 100 63 93 100 100 100 100 100 100 100 100 100 100 100
100 100 100 100 100 100 100 100 100 100 100 100 100 100 100 100 100 100 100 98 91 99 100 100 76 100 97 100 100 100 100 97 97
100 100 100 100 100 100 100 100 100 100 100 100 100 100 100 100 100 100 100 100 100 100 82 100 100 70 72 34 62 100 100 100 100
100 100 100 100 100 100 100 100 100 100 100 100 100 100 100 100 100 100 100 92 100 100 100 100 100 100 100 96 60 100 100 100 100
100 100 100 100 100 100 100 100 100 100 100 100 100 100 100 100 100 100 100 100 100 100 100 100 99 98 100 100 67 98 100 100 100
100 99 100 100 100 100 100 100 100 100 100 100 100 100 100 100 100 100 100 100 100 84 72 99 87 94 100 100 100 100 100 100 100
5 88 63 81 100 99 100 100 100 100 100 100 100 100 100 100 100 100 100 100 100 98 100 100 100 100 80 100 100 100 100 100 100
58 5 5 5 19 8 93 100 100 100 100 100 100 100 100 100 100 100 100 90 89 100 100 100 100 44 98 98 100 100 100 100 100
87 62 7 5 18 99 92 100 100 100 100 100 100 100 100 100 100 100 100 100 100 100 99 83 100 100 100 64 91 100 100 100 100
100 100 84 30 5 5 5 4 10 70 100 100 100 100 100 100 100 100 100 100 100 100 100 100 100 100 58 88 87 100 100 100 100
100 100 100 100 100 98 88 24 4 5 2 37 100 100 100 100 100 100 100 100 100 100 100 100 100 87 62 98 68 10 100 100 100
100 100 100 100 100 100 87 55 99 97 71 23 3 84 100 100 100 100 100 100 100 100 81 59 92 100 100 99 13 28 89 100 100